Location: *
(43.0167°S, 179.9000°E)
Time: 19:38:25
(UTC+00:00)

Lacrosse 5 - Pass Details

Date: 12 August 2024
Orbit: 714 x 724 km, 57.0° (Epoch: 09 March)

Event Time Altitude Azimuth Distance (km) Brightness Sun altitude
Exits shadow 16:18:15 22° 175° (S) 1,588 3.7 -29.4°
Maximum altitude 16:19:04 23° 161° (SSE) 1,554 3.8 -29.3°
Drops below altitude 10° 16:23:07 10° 109° (ESE) 2,239 5.3 -28.6°
Sets 16:25:59 0° 94° (E) 3,155 6.5 -28.0°
